Regional Weather Roundup
Issued by NWS

Home | Current Version | Previous Version | Graphics & Text | Print | Product List | Glossary Off
Versions: 1 2 3 4 5 6 7 8 9 10 11 12 13 14 15 16 17 18 19 20 21 22 23 24 25 26 27 28 29 30 31 32 33 34 35 36 37 38 39 40 41 42 43 44 45 46 47 48 49 50

000
ASUS43 KTOP 052008
RWRKS

WEATHER ROUNDUP FOR KANSAS
NATIONAL WEATHER SERVICE GOODLAND KS
300 PM CDT SUN JUL 05 2015

NOTE:  "FAIR" INDICATES FEW OR NO CLOUDS BELOW 12,000 FEET WITH NO
SIGNIFICANT WEATHER AND/OR OBSTRUCTIONS TO VISIBILITY.

KSZ001>006-013>018-027>032-041>047-052100-
NORTHWEST KANSAS

CITY           SKY/WX    TMP DP  RH WIND       PRES   REMARKS
GOODLAND       SUNNY     98  50  19 S17G26    29.83F HX  95
HAYS           SUNNY    100  63  28 SW23G31   29.81F HX 102
HILL CITY      SUNNY    103  59  23 S23G38    29.78F HX 103
RUSSELL        LGT RAIN  98  63  31 S24G35    29.81F HX 100
$$

KSZ061>065-074>080-084>089-052100-
SOUTHWEST KANSAS

CITY           SKY/WX    TMP DP  RH WIND       PRES   REMARKS
DODGE CITY     SUNNY     95  57  27 S23G33    29.88F
ELKHART          N/A     95  57  27 S18         N/A
GARDEN CITY    SUNNY     93  66  40 S23G31    29.86F HX  96
GREAT BEND     SUNNY     97  61  30 S23G29    29.84F HX  97
LIBERAL        SUNNY     93  63  36 S22G29    29.93F
PRATT          SUNNY     97  54  23 SW21G31   29.89F
$$

KSZ066>073-081>083-090>101-052100-
SOUTHEAST KANSAS

CITY           SKY/WX    TMP DP  RH WIND       PRES   REMARKS
CHANUTE        MOSUNNY   91  74  57 S13G21    29.94F HX 100
COFFEYVILLE    PTSUNNY   91  75  59 S8        29.94F HX 101
HUTCHINSON     SUNNY    100  63  29 S22G30    29.87F HX 102
MEDICINE LODGE   N/A     98  62  30 S18G31    29.86F HX  99
NEWTON         SUNNY     97  66  36 S18G25    29.92S HX 100
PARSONS        PTSUNNY   90  76  63 S8        29.95F HX 101
WICHITA INTL   MOSUNNY   98  64  32 S20G26    29.87F HX 100
WICHITA JABRA  MOSUNNY   96  66  37 S18G26    29.88F HX  99
WICHITA MCCONL MOSUNNY   97  66  36 S22       29.89F HX 101
WINFIELD       MOSUNNY   97  67  37 S21G28    29.90F HX 101
$$

KSZ007>012-019>026-033>040-048>060-102>105-052100-
NORTHEAST KANSAS

CITY           SKY/WX    TMP DP  RH WIND       PRES   REMARKS
CONCORDIA      SUNNY     95  67  39 S18       29.82F HX  99
EMPORIA        SUNNY     89  72  56 S16G24    29.91F HX  96
LAWRENCE       MOSUNNY   91  73  55 S12       29.91F HX  99
MANHATTAN      SUNNY     95  72  47 S18G24    29.85F HX 103
MARYSVILLE     SUNNY     90  75  62 S14G20    29.86F HX 100
OLATHE IND     MOSUNNY   88  75  65 S13       29.95F HX  97
OLATHE EXE     PTSUNNY   86  74  67 SE13      29.94F
SALINA         SUNNY    101  65  30 S20G32    29.83F HX 104
TOPEKA BILLARD PTSUNNY   89  72  56 SE15G21   29.90F HX  96
TOPEKA FORBES  PTSUNNY   90  72  55 SE10      29.91F HX  97
$$



USA.gov is the U.S. government's official web portal to all federal, state and local government web resources and services.